Stations météo

Publicité
Perpignan, France (7747): Température de l'air & dewpoint: 17.04.2017 23:00:00 - 23.04.2017 23:00:00 (CEST)Perpignan, France (7747): Température de l'air 5cm: 17.04.2017 23:00:00 - 23.04.2017 23:00:00 (CEST)Perpignan, France (7747): Température de l'air -20cm & Température de l'air -100cm: 17.04.2017 23:00:00 - 23.04.2017 23:00:00 (CEST)Perpignan, France (7747): Vitesse du vent & gusts: 17.04.2017 23:00:00 - 23.04.2017 23:00:00 (CEST)Perpignan, France (7747): Direction du vent: 17.04.2017 23:00:00 - 23.04.2017 23:00:00 (CEST)Perpignan, France (7747): reduced air pressure: 17.04.2017 23:00:00 - 23.04.2017 23:00:00 (CEST)Perpignan, France (7747): visibility: 17.04.2017 23:00:00 - 23.04.2017 23:00:00 (CEST)Perpignan, France (7747): Ensoleillement: 17.04.2017 23:00:00 - 23.04.2017 23:00:00 (CEST)Perpignan, France (7747): Quantités de précipitations: 17.04.2017 23:00:00 - 23.04.2017 23:00:00 (CEST)
Date & Time tt [°C] td [°C] tt 5cm [°C] tt -20cm [°C] tt -100cm [°C] ff [km/h] ff [knt] fx [km/h] fx [knt] dd ppp [hPa] vv [km] sd [min] rr [mm]
23.04.2017 23:00:00 16,3 7,0 10,0 20,1 17,0 6 3 13 7 SSW 1016,5 50 0 0,0
23.04.2017 22:00:00 17,0 7,3 11,5 20,2 17,0 10 5 12 6 W 1016,2 60 0 0,0
23.04.2017 21:00:00 18,7 10,0 13,1 20,2 17,0 4 2 8 4 N 1015,6 55 15 0,0
23.04.2017 20:00:00 20,7 10,5 19,1 20,1 16,9 8 4 11 6 NE 1015,1 57 60 0,0
23.04.2017 19:00:00 22,3 9,1 24,2 20,0 16,9 5 3 13 7 ENE 1015,2 56 60 0,0
23.04.2017 18:00:00 22,1 8,9 27,6 19,7 16,9 9 5 19 10 ENE 1015,3 57 60 0,0
23.04.2017 17:00:00 21,3 8,2 27,5 19,2 16,9 11 6 23 12 E 1015,8 59 60 0,0
23.04.2017 16:00:00 21,3 8,2 27,8 18,7 17,0 14 8 25 14 ESE 1016,4 53 60 0,0
23.04.2017 15:00:00 20,9 6,8 26,6 18,0 16,9 14 8 23 13 SE 1017,2 52 60 0,0
23.04.2017 14:00:00 20,7 7,0 27,4 17,5 17,0 16 9 25 13 ESE 1017,8 53 60 0,0
23.04.2017 13:00:00 20,3 5,9 30,1 17,1 16,9 13 7 24 13 SE 1018,4 60 60 0,0
23.04.2017 12:00:00 20,5 6,1 29,1 16,7 16,9 9 5 17 9 SE 1018,9 60 60 0,0
23.04.2017 11:00:00 19,4 6,5 26,5 16,8 16,9 8 4 13 7 SE 1019,2 53 60 0,0
23.04.2017 10:00:00 18,4 5,6 19,7 16,8 16,9 3 1 13 7 WSW 1019,4 52 60 0,0
23.04.2017 09:00:00 15,6 6,0 11,2 17,0 16,9 9 5 13 7 W 1019,8 53 60 0,0
23.04.2017 08:00:00 10,6 6,9 7,0 17,2 16,9 7 4 12 7 W 1019,9 55 46 0,0
23.04.2017 07:00:00 8,8 6,8 7,0 17,3 16,9 9 5 20 11 WSW 1019,7 31 0 0,0
23.04.2017 06:00:00 8,7 6,3 4,3 17,6 16,9 14 7 18 10 WSW 1019,6 38 0 0,0
23.04.2017 05:00:00 9,2 7,0 4,2 17,8 16,9 4 2 6 4 W 1019,6 37 0 0,0
23.04.2017 04:00:00 10,5 7,6 5,3 18,1 16,9 7 4 11 6 NNE 1019,3 34 0 0,0
23.04.2017 03:00:00 10,6 5,8 4,5 18,4 16,9 4 2 10 6 N 1019,2 55 0 0,0
23.04.2017 02:00:00 9,8 5,4 5,1 18,5 16,9 4 2 6 3 NE 1019,3 48 0 0,0
23.04.2017 01:00:00 10,4 5,8 6,2 18,8 16,9 5 3 9 5 WNW 1019,3 60 0 0,0
23.04.2017 00:00:00 11,1 6,2 6,7 19,1 16,9 6 4 10 5 WSW 1019,3 48 0 0,0
22.04.2017 23:00:00 11,9 6,6 7,1 19,3 16,9 4 2 7 4 WSW 1019,4 48 0 0,0
22.04.2017 22:00:00 13,5 6,6 8,6 19,5 16,9 5 3 8 4 W 1019,5 60 0 0,0
22.04.2017 21:00:00 16,3 5,6 10,3 19,5 16,9 0 0 2 1 N 1019,3 18 18 0,0
22.04.2017 20:00:00 18,0 5,9 16,3 19,5 16,9 0 0 10 5 N 1019,4 60 60 0,0
22.04.2017 19:00:00 18,6 6,7 20,7 19,3 16,9 7 4 16 9 E 1020,0 57 60 0,0
22.04.2017 18:00:00 19,0 7,1 23,5 19,0 16,9 10 6 19 10 E 1020,6 60 60 0,0
22.04.2017 17:00:00 19,4 7,2 26,5 18,5 16,9 9 5 19 11 ESE 1021,2 53 60 0,0
22.04.2017 16:00:00 19,3 7,1 27,3 18,0 16,9 12 6 23 13 ENE 1022,1 59 60 0,0
22.04.2017 15:00:00 19,3 8,3 26,1 17,4 16,9 12 7 23 12 E 1023,1 59 60 0,0
22.04.2017 14:00:00 18,7 7,8 26,8 16,9 16,9 12 7 26 14 E 1023,7 54 60 0,0
22.04.2017 13:00:00 17,5 7,5 30,2 16,4 16,9 10 6 23 12 ENE 1024,8 57 60 0,0
22.04.2017 12:00:00 17,4 8,0 26,8 16,2 16,9 9 5 17 9 ENE 1025,1 60 60 0,0
22.04.2017 11:00:00 16,3 8,8 24,3 16,1 16,9 8 4 16 9 ENE 1025,5 19 60 0,0
22.04.2017 10:00:00 15,2 8,7 17,1 16,1 16,9 5 3 13 7 N 1025,7 47 60 0,0
22.04.2017 09:00:00 11,4 6,1 9,1 16,2 16,9 4 2 9 5 W 1026,1 46 2 0,0
22.04.2017 08:00:00 8,1 5,4 6,0 16,4 16,9 4 2 11 6 WSW 1025,9 44 0 0,0
22.04.2017 07:00:00 6,5 5,0 2,7 16,7 16,9 9 5 11 6 WSW 1025,8 36 0 0,0
22.04.2017 06:00:00 5,0 2,5 2,1 16,9 16,9 5 3 10 5 W 1025,8 39 0 0,0
22.04.2017 05:00:00 5,0 2,7 1,7 17,2 16,9 6 4 9 5 W 1026,1 44 0 0,0
22.04.2017 04:00:00 6,1 2,4 1,7 17,4 16,9 3 2 9 5 WSW 1026,3 52 0 0,0
22.04.2017 03:00:00 6,2 3,0 2,2 17,7 16,9 0 0 8 5 N 1026,6 52 0 0,0
22.04.2017 02:00:00 6,7 3,3 3,0 18,0 16,9 8 5 13 7 WSW 1026,9 51 0 0,0
22.04.2017 01:00:00 7,7 3,2 3,4 18,3 16,9 4 2 6 3 WSW 1027,2 49 0 0,0
22.04.2017 00:00:00 8,7 3,5 4,0 18,5 16,9 0 0 8 5 N 1027,4 59 0 0,0
21.04.2017 23:00:00 8,9 4,1 6,1 18,8 16,9 9 5 12 6 W 1027,6 58 0 0,0
21.04.2017 22:00:00 11,6 4,6 9,0 18,9 16,9 6 3 14 7 NW 1027,5 60 0 0,0
21.04.2017 21:00:00 13,0 6,1 10,1 18,9 16,9 7 4 11 6 N 1027,4 60 19 0,0
21.04.2017 20:00:00 14,3 6,1 13,7 18,9 16,9 8 5 19 11 E 1027,4 60 60 0,0
21.04.2017 19:00:00 15,1 4,7 16,8 18,7 16,9 14 8 23 13 E 1027,7 46 60 0,0
21.04.2017 18:00:00 15,7 2,5 20,4 18,4 16,9 14 8 22 12 SE 1027,7 60 60 0,0
21.04.2017 17:00:00 16,4 1,3 23,8 18,0 16,9 14 7 23 13 ESE 1027,8 60 60 0,0
21.04.2017 16:00:00 16,5 1,0 24,4 17,5 16,9 12 7 25 13 ESE 1028,3 58 60 0,0
21.04.2017 15:00:00 16,2 -0,1 23,9 17,0 16,9 13 7 26 14 E 1028,9 60 60 0,0
21.04.2017 14:00:00 16,3 0,8 24,2 16,4 16,9 13 7 26 14 E 1029,3 60 60 0,0
21.04.2017 13:00:00 15,4 -0,4 27,0 16,1 16,9 11 6 24 13 E 1029,7 60 60 0,0
21.04.2017 12:00:00 15,3 -0,9 23,0 15,9 16,9 13 7 24 13 E 1029,7 59 60 0,0
21.04.2017 11:00:00 14,9 0,7 19,6 15,8 16,9 13 7 26 14 E 1029,5 33 60 0,0
21.04.2017 10:00:00 14,0 0,6 17,1 15,8 16,9 7 4 13 7 SE 1029,2 46 60 0,0
21.04.2017 09:00:00 11,4 0,8 6,5 16,0 16,9 2 1 5 3 S 1028,7 54 60 0,0
21.04.2017 08:00:00 5,8 -1,4 0,7 16,2 16,9 2 1 8 5 SSW 1028,2 50 48 0,0
21.04.2017 07:00:00 4,5 -2,2 0,3 16,5 16,9 5 3 11 6 WSW 1027,8 60 0 0,0
21.04.2017 06:00:00 4,1 -1,5 1,4 16,8 17,0 6 3 10 6 W 1027,5 60 0 0,0
21.04.2017 05:00:00 5,1 -3,0 1,0 17,1 16,9 8 5 11 6 WSW 1027,7 60 0 0,0
21.04.2017 04:00:00 5,2 -3,1 1,2 17,3 16,9 8 4 11 6 SW 1027,8 60 0 0,0
21.04.2017 03:00:00 6,5 -2,2 1,7 17,6 16,9 3 2 11 6 NW 1027,9 60 0 0,0
21.04.2017 02:00:00 8,1 -3,1 1,8 17,9 16,9 8 4 12 7 N 1027,8 60 0 0,0
21.04.2017 01:00:00 7,7 -3,2 1,9 18,2 16,9 5 3 9 5 NW 1027,4 60 0 0,0
21.04.2017 00:00:00 8,4 -2,6 3,6 18,5 16,9 6 4 14 7 SSW 1026,9 60 0 0,0
20.04.2017 23:00:00 9,1 -1,3 6,0 18,7 16,9 9 5 20 11 SW 1026,7 60 0 0,0
20.04.2017 22:00:00 8,9 -1,3 4,5 19,0 16,9 13 7 18 10 WSW 1026,5 60 0 0,0
20.04.2017 21:00:00 12,7 -4,0 5,9 19,1 16,9 3 2 8 4 SSE 1026,1 60 22 0,0
20.04.2017 20:00:00 14,5 -3,8 11,9 19,1 16,9 5 3 16 9 SSW 1025,6 60 60 0,0
20.04.2017 19:00:00 14,9 -2,5 17,0 19,0 16,9 6 3 20 11 S 1025,6 50 60 0,0
20.04.2017 18:00:00 15,1 -1,1 19,9 18,7 16,9 13 7 25 14 SE 1025,8 60 60 0,0
20.04.2017 17:00:00 15,8 -2,7 22,0 18,3 16,9 12 6 27 14 E 1026,3 58 60 0,0
20.04.2017 16:00:00 15,5 -1,1 22,3 17,8 16,9 14 8 28 15 E 1027,0 53 60 0,0
20.04.2017 15:00:00 15,5 -2,5 22,1 17,3 16,9 13 7 22 12 E 1027,3 53 60 0,0
20.04.2017 14:00:00 15,4 -3,5 24,1 16,8 16,9 9 5 24 13 E 1027,4 54 60 0,0
20.04.2017 13:00:00 14,3 -6,0 25,5 16,4 16,9 14 7 25 13 ENE 1028,0 60 60 0,0
20.04.2017 12:00:00 13,8 -6,5 25,3 16,2 16,9 16 8 28 15 E 1028,6 60 60 0,0
20.04.2017 11:00:00 13,1 -8,8 21,7 16,1 16,9 13 7 23 13 NNE 1028,5 60 60 0,0
20.04.2017 10:00:00 11,6 -5,9 14,9 16,2 16,9 9 5 23 13 NW 1028,2 60 60 0,0
20.04.2017 09:00:00 9,7 -4,7 8,0 16,4 16,9 13 7 19 11 NW 1028,1 60 60 0,0
20.04.2017 08:00:00 8,1 -4,7 5,5 16,6 16,9 16 8 30 16 NW 1027,4 41 50 0,0
20.04.2017 07:00:00 7,6 -5,2 4,5 16,9 16,9 20 11 34 18 NNW 1026,6 60 0 0,0
20.04.2017 06:00:00 6,0 -4,5 2,9 17,1 16,9 14 7 20 11 NNW 1026,3 60 0 0,0
20.04.2017 05:00:00 6,1 -4,7 3,1 17,3 16,9 9 5 15 8 NNW 1026,0 60 0 0,0
20.04.2017 04:00:00 7,3 -4,8 1,9 17,6 16,9 10 5 23 12 N 1026,1 60 0 0,0
20.04.2017 03:00:00 7,4 -4,7 1,5 17,9 16,9 9 5 12 6 NE 1026,1 60 0 0,0
20.04.2017 02:00:00 8,8 -5,1 1,7 18,2 16,9 3 2 9 5 ENE 1026,0 60 0 0,0
20.04.2017 01:00:00 10,1 -5,9 2,8 18,5 16,9 3 2 12 6 NNW 1025,8 60 0 0,0
20.04.2017 00:00:00 10,6 -7,2 4,5 18,7 16,9 6 3 11 6 NNW 1024,9 60 0 0,0
19.04.2017 23:00:00 11,7 -7,7 8,8 18,9 16,9 10 5 27 15 N 1024,4 60 0 0,0
19.04.2017 22:00:00 13,6 -6,6 11,1 19,1 16,9 11 6 38 20 NNW 1023,6 60 0 0,0
19.04.2017 21:00:00 15,1 -5,4 13,4 19,2 16,9 23 13 42 23 NW 1022,6 60 22 0,0
19.04.2017 20:00:00 16,2 -5,6 15,3 19,2 16,9 50 27 94 51 WNW 1021,8 40 60 0,0
19.04.2017 19:00:00 17,3 -5,9 18,6 19,1 16,9 30 16 53 29 WNW 1021,6 44 60 0,0
19.04.2017 18:00:00 18,1 -5,9 22,3 18,9 16,9 31 17 51 28 NW 1021,3 60 60 0,0
19.04.2017 17:00:00 18,4 -6,4 26,0 18,6 16,8 25 13 49 27 NW 1021,4 44 60 0,0
19.04.2017 16:00:00 18,2 -6,5 25,8 18,2 16,9 22 12 50 27 NW 1021,8 45 60 0,0
19.04.2017 15:00:00 18,0 -9,1 25,4 17,8 16,9 24 13 58 32 NNW 1022,5 50 60 0,0
19.04.2017 14:00:00 17,9 -12,0 26,7 17,3 16,9 26 14 41 22 N 1022,8 54 60 0,0
19.04.2017 13:00:00 16,4 -10,4 29,5 17,0 16,8 22 12 38 21 N 1023,5 60 60 0,0
19.04.2017 12:00:00 16,1 -11,5 24,3 16,9 16,8 24 13 42 23 N 1023,8 60 60 0,0
19.04.2017 11:00:00 14,7 -8,7 20,6 16,9 16,9 24 13 40 21 NW 1023,8 60 60 0,0
19.04.2017 10:00:00 13,6 -5,6 15,9 16,9 16,8 18 10 33 18 NW 1023,7 60 60 0,0
19.04.2017 09:00:00 11,3 -3,6 9,8 17,1 16,8 21 12 39 21 NW 1023,7 60 60 0,0
19.04.2017 08:00:00 9,7 -3,3 7,9 17,3 16,8 21 11 37 20 WNW 1023,5 45 50 0,0
19.04.2017 07:00:00 9,3 -4,0 7,6 17,6 16,8 24 13 37 20 WNW 1023,1 60 0 0,0
19.04.2017 06:00:00 9,2 -4,1 7,5 17,8 16,8 17 9 28 15 WNW 1023,1 60 0 0,0
19.04.2017 05:00:00 9,7 -4,7 7,9 17,9 16,8 19 10 29 16 WNW 1023,0 60 0 0,0
19.04.2017 04:00:00 10,6 -5,9 8,8 18,2 16,8 14 8 25 14 NW 1022,9 60 0 0,0
19.04.2017 03:00:00 11,5 -6,4 10,3 18,4 16,8 17 9 30 16 NNW 1023,1 60 0 0,0
19.04.2017 02:00:00 11,9 -6,1 10,3 18,6 16,8 18 10 29 16 NNW 1023,1 60 0 0,0
19.04.2017 01:00:00 12,4 -6,1 10,2 18,8 16,8 13 7 25 14 NNW 1022,9 60 0 0,0
19.04.2017 00:00:00 13,0 -5,1 11,1 19,0 16,8 15 8 36 19 N 1021,9 60 0 0,0
18.04.2017 23:00:00 15,2 -3,7 13,6 19,2 16,8 25 13 44 24 N 1020,9 60 0 0,0
18.04.2017 22:00:00 15,8 -1,8 13,9 19,4 16,8 17 9 53 29 N 1020,0 60 0 0,0
18.04.2017 21:00:00 17,1 -1,6 15,4 19,5 16,8 30 16 56 30 NNW 1018,6 60 13 0,0
18.04.2017 20:00:00 18,0 0,1 17,1 19,5 16,8 34 18 65 35 NNW 1017,3 35 60 0,0
18.04.2017 19:00:00 19,3 1,7 20,0 19,5 16,8 36 19 79 42 NW 1016,8 24 60 0,0
18.04.2017 18:00:00 20,2 2,5 23,2 19,2 16,7 37 20 65 35 NW 1016,4 20 60 0,0
18.04.2017 17:00:00 20,4 3,1 25,3 19,0 16,8 43 23 66 36 NNW 1016,3 19 60 0,0
18.04.2017 16:00:00 21,0 3,7 26,3 18,6 16,8 37 20 71 38 NNW 1016,2 20 60 0,0
18.04.2017 15:00:00 20,9 4,0 25,7 18,3 16,7 37 20 63 34 NNW 1016,6 16 60 0,0
18.04.2017 14:00:00 20,6 4,6 26,3 17,9 16,7 39 21 66 36 NNW 1016,5 17 60 0,0
18.04.2017 13:00:00 20,0 4,9 27,3 17,7 16,7 40 21 71 39 NW 1016,7 16 60 0,0
18.04.2017 12:00:00 19,3 5,0 24,8 17,4 16,7 40 22 63 34 NW 1016,8 18 60 0,0
18.04.2017 11:00:00 18,2 4,4 20,8 17,6 16,7 34 18 68 37 NW 1017,0 19 60 0,0
18.04.2017 10:00:00 17,1 4,4 18,9 17,5 16,7 40 22 71 38 NW 1016,9 20 60 0,0
18.04.2017 09:00:00 15,9 4,9 15,1 17,7 16,7 31 17 61 33 NW 1017,2 20 60 0,0
18.04.2017 08:00:00 15,2 4,8 13,3 17,8 16,7 36 20 55 30 NW 1017,1 14 42 0,0
18.04.2017 07:00:00 15,2 5,1 13,1 17,9 16,7 27 15 43 23 NW 1017,1 60 0 0,0
18.04.2017 06:00:00 15,6 5,2 13,7 18,1 16,7 23 12 52 28 NW 1016,8 60 0 0,0
18.04.2017 05:00:00 15,7 5,6 13,8 18,2 16,7 23 12 40 22 WNW 1016,7 60 0 0,0
18.04.2017 04:00:00 16,6 5,5 12,0 18,5 16,7 26 14 41 22 NW 1016,7 60 0 0,0
18.04.2017 03:00:00 16,0 5,6 10,0 18,6 16,7 10 6 26 14 NW 1017,3 60 0 0,0
18.04.2017 02:00:00 15,1 5,3 10,6 18,8 16,7 9 5 23 12 NNW 1017,9 60 0 0,0
18.04.2017 01:00:00 16,9 5,5 13,2 19,0 16,7 13 7 24 13 WNW 1018,0 60 0 0,0
18.04.2017 00:00:00 17,4 5,3 13,0 19,2 16,6 10 6 21 11 NW 1018,0 60 0 0,0
17.04.2017 23:00:00 18,0 5,6 15,2 19,3 16,6 12 7 29 16 NW 1018,0 60 0 0,0

tt = Température de l'air
td = dewpoint
tt 5cm = Température de l'air 5cm
tt -20cm = Température de l'air -20cm
tt -100cm = Température de l'air -100cm
ff = Vitesse du vent
fx = gusts
dd = Direction du vent
ppp = reduced air pressure
vv = visibility
sd = Ensoleillement
rr = Quantités de précipitations

stations d'obs. à proximité